OVO3510 ZJHK-ZGHA

Flight info

Callsign OVO3510
Flight time 1h 33m
Altitude 26600
Route AGTEL W71 LH R339 BHY W159 IVPUB W120 ENKUS R343 AVNEL W618 SEBMO W227 RUKLI
Aircraft A35K/H-SDE2E3GHIJ1J3J4J5LM1ORWXYZ/LB1D1

Departure

Time 2026-04-23 11:16
Airport Haikou Meilan International Airport (ZJHK)

Arrival

Time 2026-04-23 12:50
Airport Changsha Huanghua International Airport (ZGHA)
Time Latitude Longitude Altitude Speed Heading
2026-04-23 10:34 19.93827 110.46990 86 ft 0 kts 269°
2026-04-23 11:01 19.93827 110.46999 81 ft 3 kts 269°
2026-04-23 11:02 19.93827 110.47019 82 ft 3 kts 269°
2026-04-23 11:02 19.93827 110.47039 84 ft 3 kts 269°
2026-04-23 11:02 19.93828 110.47059 84 ft 3 kts 269°
2026-04-23 11:02 19.93827 110.47080 84 ft 3 kts 266°
2026-04-23 11:03 19.93833 110.47101 86 ft 3 kts 229°
2026-04-23 11:03 19.93846 110.47117 85 ft 3 kts 214°
2026-04-23 11:03 19.93865 110.47125 86 ft 2 kts 179°
2026-04-23 11:03 19.93868 110.47125 86 ft 0 kts 179°
2026-04-23 11:07 19.93846 110.47125 85 ft 10 kts 179°
2026-04-23 11:07 19.93751 110.47104 86 ft 16 kts 234°
2026-04-23 11:07 19.93740 110.46966 85 ft 22 kts 270°
2026-04-23 11:08 19.93809 110.46867 87 ft 19 kts
2026-04-23 11:08 19.93962 110.46869 82 ft 23 kts 359°
2026-04-23 11:08 19.94105 110.46868 83 ft 22 kts 359°
2026-04-23 11:08 19.94261 110.46867 68 ft 23 kts 360°
2026-04-23 11:09 19.94435 110.46867 66 ft 23 kts
2026-04-23 11:09 19.94571 110.46867 65 ft 21 kts 360°
2026-04-23 11:09 19.94714 110.46867 64 ft 23 kts
2026-04-23 11:09 19.94821 110.46867 61 ft 22 kts
2026-04-23 11:10 19.95041 110.46867 58 ft 21 kts
2026-04-23 11:10 19.95190 110.46841 59 ft 23 kts 312°
2026-04-23 11:10 19.95206 110.46675 64 ft 19 kts 270°
2026-04-23 11:10 19.95206 110.46532 57 ft 23 kts 270°
2026-04-23 11:11 19.95205 110.46363 63 ft 25 kts 270°
2026-04-23 11:11 19.95205 110.46231 58 ft 14 kts 270°
2026-04-23 11:11 19.95204 110.46163 63 ft 0 kts 270°
2026-04-23 11:11 19.95204 110.46145 63 ft 5 kts 270°
2026-04-23 11:12 19.95204 110.46084 63 ft 11 kts 270°
2026-04-23 11:12 19.95203 110.46020 63 ft 15 kts 270°
2026-04-23 11:12 19.95203 110.45852 63 ft 21 kts 270°
2026-04-23 11:12 19.95202 110.45676 62 ft 26 kts 270°
2026-04-23 11:13 19.95202 110.45516 58 ft 21 kts 270°
2026-04-23 11:13 19.95202 110.45411 58 ft 23 kts 269°
2026-04-23 11:13 19.95202 110.45268 60 ft 19 kts 270°
2026-04-23 11:13 19.95201 110.45110 59 ft 21 kts 270°
2026-04-23 11:14 19.95201 110.44982 58 ft 18 kts 270°
2026-04-23 11:14 19.95205 110.44855 58 ft 14 kts 282°
2026-04-23 11:14 19.95256 110.44822 50 ft 0 kts
2026-04-23 11:15 19.95258 110.44822 50 ft 2 kts
2026-04-23 11:15 19.95308 110.44829 54 ft 13 kts 17°
2026-04-23 11:15 19.95374 110.44921 56 ft 19 kts 86°
2026-04-23 11:15 19.95374 110.44990 57 ft 1 kts 90°
2026-04-23 11:16 19.95374 110.45123 59 ft 58 kts 90°
2026-04-23 11:16 19.95376 110.45888 63 ft 145 kts 90°
2026-04-23 11:16 19.95378 110.47162 469 ft 187 kts 89°
2026-04-23 11:16 19.95373 110.48628 1306 ft 207 kts 88°
2026-04-23 11:17 19.95784 110.50046 2171 ft 204 kts 53°
2026-04-23 11:17 19.96993 110.50851 2737 ft 217 kts 13°
2026-04-23 11:17 19.98538 110.50642 3092 ft 239 kts 334°
2026-04-23 11:17 19.99728 110.49502 3470 ft 253 kts 304°
2026-04-23 11:18 20.00844 110.48046 4358 ft 252 kts 313°
2026-04-23 11:18 20.02178 110.46864 5345 ft 250 kts 323°
2026-04-23 11:18 20.03679 110.45904 6122 ft 255 kts 330°
2026-04-23 11:18 20.05302 110.45092 6841 ft 260 kts 334°
2026-04-23 11:19 20.06991 110.44372 7597 ft 263 kts 336°
2026-04-23 11:19 20.08720 110.43699 8346 ft 266 kts 338°
2026-04-23 11:19 20.10482 110.43047 9082 ft 270 kts 338°
2026-04-23 11:19 20.12270 110.42402 9811 ft 273 kts 339°
2026-04-23 11:20 20.14082 110.41759 10486 ft 276 kts 339°
2026-04-23 11:20 20.15912 110.41114 11180 ft 278 kts 339°
2026-04-23 11:20 20.17761 110.40464 11874 ft 281 kts 338°
2026-04-23 11:20 20.19626 110.39810 12569 ft 284 kts 338°
2026-04-23 11:21 20.21509 110.39151 13270 ft 286 kts 338°
2026-04-23 11:21 20.23382 110.38495 13923 ft 289 kts 338°
2026-04-23 11:21 20.25302 110.37823 14512 ft 293 kts 337°
2026-04-23 11:21 20.27281 110.37140 14887 ft 307 kts 338°
2026-04-23 11:22 20.29372 110.36417 15122 ft 324 kts 338°
2026-04-23 11:22 20.31565 110.35661 15356 ft 340 kts 338°
2026-04-23 11:22 20.33875 110.34867 15579 ft 355 kts 338°
2026-04-23 11:22 20.36261 110.34049 15892 ft 365 kts 338°
2026-04-23 11:23 20.38698 110.33215 16374 ft 369 kts 339°
2026-04-23 11:23 20.41157 110.32373 16903 ft 372 kts 338°
2026-04-23 11:23 20.43628 110.31525 17426 ft 375 kts 338°
2026-04-23 11:23 20.46118 110.30671 17929 ft 378 kts 338°
2026-04-23 11:24 20.48650 110.29869 18390 ft 382 kts 342°
2026-04-23 11:24 20.51304 110.29477 18821 ft 389 kts 354°
2026-04-23 11:24 20.54024 110.29458 19264 ft 393 kts 358°
2026-04-23 11:24 20.56766 110.29595 19700 ft 396 kts 360°
2026-04-23 11:25 20.59534 110.29805 20082 ft 401 kts
2026-04-23 11:25 20.62324 110.30038 20474 ft 404 kts
2026-04-23 11:25 20.65134 110.30268 20895 ft 406 kts 360°
2026-04-23 11:25 20.67957 110.30486 21315 ft 408 kts 359°
2026-04-23 11:26 20.70798 110.30690 21734 ft 411 kts 359°
2026-04-23 11:26 20.73661 110.30885 22134 ft 413 kts 359°
2026-04-23 11:26 20.76530 110.31074 22538 ft 415 kts 359°
2026-04-23 11:26 20.79425 110.31262 22938 ft 418 kts 359°
2026-04-23 11:27 20.82332 110.31450 23339 ft 421 kts 359°
2026-04-23 11:27 20.85261 110.31640 23681 ft 423 kts 359°
2026-04-23 11:27 20.88173 110.31830 24029 ft 425 kts 359°
2026-04-23 11:27 20.91164 110.32026 24391 ft 427 kts 359°
2026-04-23 11:28 20.94095 110.32220 24744 ft 428 kts 359°
2026-04-23 11:28 20.97118 110.32419 25110 ft 430 kts 359°
2026-04-23 11:28 21.00068 110.32615 25392 ft 431 kts 359°
2026-04-23 11:28 21.03059 110.32801 25460 ft 431 kts 359°
2026-04-23 11:29 21.06051 110.32960 25462 ft 431 kts 358°
2026-04-23 11:29 21.09063 110.32754 25465 ft 424 kts 345°
2026-04-23 11:29 21.11812 110.31856 25465 ft 416 kts 331°
2026-04-23 11:29 21.14268 110.30209 25467 ft 407 kts 316°
2026-04-23 11:30 21.16128 110.28021 25472 ft 401 kts 301°
2026-04-23 11:30 21.17619 110.25512 25466 ft 399 kts 297°
2026-04-23 11:30 21.18974 110.22909 25467 ft 399 kts 295°
2026-04-23 11:30 21.20261 110.20278 25481 ft 399 kts 294°
2026-04-23 11:31 21.21532 110.17637 25472 ft 398 kts 294°
2026-04-23 11:31 21.22805 110.15006 25470 ft 398 kts 295°
2026-04-23 11:31 21.24093 110.12376 25473 ft 398 kts 295°
2026-04-23 11:31 21.25393 110.09753 25471 ft 398 kts 295°
2026-04-23 11:32 21.26701 110.07137 25468 ft 399 kts 295°
2026-04-23 11:32 21.28017 110.04516 25472 ft 399 kts 295°
2026-04-23 11:32 21.29333 110.01900 25472 ft 399 kts 295°
2026-04-23 11:32 21.30650 109.99282 25472 ft 399 kts 295°
2026-04-23 11:33 21.31964 109.96667 25472 ft 399 kts 295°
2026-04-23 11:33 21.33280 109.94046 25473 ft 399 kts 295°
2026-04-23 11:33 21.34591 109.91433 25472 ft 399 kts 295°
2026-04-23 11:33 21.35905 109.88811 25473 ft 399 kts 295°
2026-04-23 11:34 21.37217 109.86191 25473 ft 399 kts 295°
2026-04-23 11:34 21.38530 109.83568 25473 ft 399 kts 295°
2026-04-23 11:34 21.39843 109.80944 25473 ft 399 kts 295°
2026-04-23 11:34 21.41151 109.78327 25473 ft 399 kts 295°
2026-04-23 11:35 21.42462 109.75704 25475 ft 399 kts 295°
2026-04-23 11:35 21.43769 109.73087 25473 ft 399 kts 295°
2026-04-23 11:35 21.45086 109.70451 25473 ft 399 kts 295°
2026-04-23 11:35 21.46396 109.67827 25473 ft 399 kts 295°
2026-04-23 11:36 21.47706 109.65201 25469 ft 399 kts 295°
2026-04-23 11:36 21.49016 109.62574 25470 ft 399 kts 295°
2026-04-23 11:36 21.50325 109.59948 25470 ft 399 kts 295°
2026-04-23 11:36 21.51632 109.57324 25470 ft 399 kts 295°
2026-04-23 11:37 21.52941 109.54696 25470 ft 399 kts 295°
2026-04-23 11:37 21.54246 109.52073 25470 ft 399 kts 295°
2026-04-23 11:37 21.55554 109.49443 25470 ft 399 kts 295°
2026-04-23 11:37 21.57063 109.46926 25535 ft 405 kts 306°
2026-04-23 11:38 21.59083 109.44783 25931 ft 412 kts 319°
2026-04-23 11:38 21.61560 109.43221 26331 ft 419 kts 332°
2026-04-23 11:38 21.64369 109.42346 26462 ft 417 kts 342°
2026-04-23 11:38 21.67183 109.41847 26477 ft 401 kts 346°
2026-04-23 11:39 21.69914 109.41513 26480 ft 391 kts 347°
2026-04-23 11:39 21.72616 109.41228 26478 ft 390 kts 348°
2026-04-23 11:39 21.75315 109.40942 26470 ft 390 kts 347°
2026-04-23 11:39 21.78012 109.40638 26471 ft 390 kts 347°
2026-04-23 11:40 21.80701 109.40316 26469 ft 389 kts 347°
2026-04-23 11:40 21.83390 109.39979 26471 ft 389 kts 346°
2026-04-23 11:40 21.86069 109.39635 26471 ft 389 kts 346°
2026-04-23 11:40 21.88766 109.39284 26470 ft 389 kts 346°
2026-04-23 11:41 21.91456 109.38932 26471 ft 389 kts 346°
2026-04-23 11:41 21.94142 109.38583 26489 ft 389 kts 345°
2026-04-23 11:41 21.96828 109.38234 26476 ft 389 kts 345°
2026-04-23 11:41 21.99513 109.37884 26477 ft 389 kts 345°
2026-04-23 11:42 22.02202 109.37534 26474 ft 389 kts 345°
2026-04-23 11:42 22.04885 109.37185 26472 ft 389 kts 345°
2026-04-23 11:42 22.07578 109.36835 26471 ft 389 kts 345°
2026-04-23 11:42 22.10255 109.36487 26473 ft 389 kts 345°
2026-04-23 11:43 22.12949 109.36136 26475 ft 389 kts 345°
2026-04-23 11:43 22.15628 109.35786 26472 ft 389 kts 345°
2026-04-23 11:43 22.18320 109.35435 26478 ft 389 kts 345°
2026-04-23 11:43 22.21004 109.35084 26481 ft 389 kts 345°
2026-04-23 11:44 22.23684 109.34736 26475 ft 389 kts 345°
2026-04-23 11:44 22.26382 109.34415 26473 ft 392 kts 348°
2026-04-23 11:44 22.29136 109.34487 26492 ft 402 kts 359°
2026-04-23 11:44 22.31883 109.34869 26480 ft 405 kts
2026-04-23 11:45 22.34673 109.35363 26478 ft 406 kts
2026-04-23 11:45 22.37454 109.35912 26476 ft 407 kts
2026-04-23 11:45 22.40237 109.36485 26478 ft 407 kts
2026-04-23 11:45 22.43025 109.37059 26479 ft 407 kts
2026-04-23 11:46 22.45809 109.37624 26481 ft 407 kts
2026-04-23 11:46 22.48591 109.38183 26481 ft 407 kts
2026-04-23 11:46 22.51374 109.38737 26478 ft 406 kts
2026-04-23 11:46 22.54151 109.39286 26502 ft 406 kts
2026-04-23 11:47 22.56939 109.39836 26490 ft 407 kts
2026-04-23 11:47 22.59729 109.40379 26488 ft 408 kts
2026-04-23 11:47 22.62526 109.40926 26491 ft 408 kts
2026-04-23 11:47 22.65319 109.41476 26487 ft 408 kts
2026-04-23 11:48 22.68111 109.42029 26491 ft 408 kts
2026-04-23 11:48 22.70905 109.42582 26492 ft 408 kts
2026-04-23 11:48 22.73699 109.43136 26492 ft 408 kts
2026-04-23 11:48 22.76486 109.43692 26492 ft 408 kts
2026-04-23 11:49 22.79274 109.44244 26496 ft 408 kts
2026-04-23 11:49 22.82063 109.44798 26494 ft 406 kts
2026-04-23 11:49 22.84873 109.45354 26513 ft 420 kts
2026-04-23 11:49 22.87834 109.45916 26486 ft 445 kts
2026-04-23 11:50 22.90967 109.46507 26481 ft 468 kts
2026-04-23 11:50 22.94254 109.47139 26484 ft 491 kts
2026-04-23 11:50 22.97685 109.47812 26484 ft 510 kts
2026-04-23 11:50 23.01200 109.48517 26492 ft 515 kts
2026-04-23 11:51 23.04730 109.49236 26498 ft 516 kts
2026-04-23 11:51 23.08252 109.49954 26501 ft 516 kts
2026-04-23 11:51 23.11782 109.50669 26499 ft 515 kts
2026-04-23 11:51 23.15309 109.51378 26513 ft 515 kts
2026-04-23 11:52 23.18834 109.52083 26494 ft 515 kts
2026-04-23 11:52 23.22360 109.52784 26507 ft 515 kts
2026-04-23 11:52 23.25889 109.53484 26506 ft 516 kts
2026-04-23 11:52 23.29421 109.54185 26504 ft 516 kts
2026-04-23 11:53 23.32955 109.54890 26503 ft 516 kts
2026-04-23 11:53 23.36486 109.55592 26508 ft 517 kts
2026-04-23 11:53 23.40025 109.56296 26508 ft 517 kts
2026-04-23 11:53 23.43557 109.57005 26539 ft 517 kts
2026-04-23 11:54 23.47102 109.57716 26510 ft 518 kts
2026-04-23 11:54 23.50646 109.58426 26504 ft 518 kts
2026-04-23 11:54 23.54192 109.59134 26507 ft 518 kts
2026-04-23 11:54 23.57742 109.59843 26506 ft 518 kts
2026-04-23 11:55 23.61285 109.60552 26504 ft 519 kts
2026-04-23 11:55 23.64842 109.61263 26507 ft 519 kts
2026-04-23 11:55 23.68389 109.61971 26506 ft 519 kts
2026-04-23 11:55 23.71938 109.62683 26506 ft 519 kts
2026-04-23 11:56 23.75487 109.63395 26514 ft 519 kts
2026-04-23 11:56 23.79034 109.64107 26507 ft 519 kts
2026-04-23 11:56 23.82495 109.64801 26508 ft 519 kts
2026-04-23 11:56 23.86039 109.65512 26505 ft 519 kts
2026-04-23 11:57 23.89591 109.66225 26506 ft 519 kts
2026-04-23 11:57 23.93140 109.66938 26510 ft 519 kts
2026-04-23 11:57 23.96697 109.67652 26512 ft 519 kts
2026-04-23 11:57 24.00241 109.68364 26511 ft 519 kts
2026-04-23 11:58 24.03748 109.69070 26512 ft 519 kts
2026-04-23 11:58 24.06141 109.69552 26510 ft 519 kts
2026-04-23 11:58 24.10847 109.70501 26514 ft 519 kts
2026-04-23 11:58 24.13243 109.70985 26511 ft 519 kts
2026-04-23 11:59 24.17951 109.71934 26512 ft 519 kts
2026-04-23 11:59 24.20350 109.72419 26511 ft 519 kts
2026-04-23 11:59 24.25053 109.73369 26512 ft 519 kts
2026-04-23 11:59 24.28597 109.74084 26508 ft 519 kts
2026-04-23 12:00 24.30995 109.74568 26508 ft 519 kts
2026-04-23 12:00 24.34547 109.75285 26520 ft 518 kts
2026-04-23 12:00 24.38095 109.76003 26515 ft 518 kts
2026-04-23 12:00 24.41634 109.76721 26515 ft 518 kts
2026-04-23 12:01 24.45182 109.77441 26520 ft 518 kts
2026-04-23 12:01 24.48718 109.78162 26517 ft 518 kts
2026-04-23 12:01 24.52263 109.78943 26517 ft 519 kts
2026-04-23 12:01 24.55797 109.79743 26522 ft 519 kts
2026-04-23 12:02 24.59338 109.80530 26523 ft 519 kts
2026-04-23 12:02 24.62881 109.81297 26530 ft 519 kts
2026-04-23 12:02 24.66396 109.82314 26536 ft 528 kts 13°
2026-04-23 12:02 24.69769 109.83995 26541 ft 537 kts 24°
2026-04-23 12:03 24.72990 109.86105 26530 ft 541 kts 27°
2026-04-23 12:03 24.76150 109.88374 26526 ft 544 kts 30°
2026-04-23 12:03 24.79280 109.90720 26533 ft 545 kts 30°
2026-04-23 12:03 24.82399 109.93093 26526 ft 545 kts 30°
2026-04-23 12:04 24.85517 109.95470 26539 ft 545 kts 30°
2026-04-23 12:04 24.88604 109.97797 26548 ft 544 kts 30°
2026-04-23 12:04 24.91735 110.00134 26545 ft 544 kts 30°
2026-04-23 12:04 24.94872 110.02479 26528 ft 544 kts 30°
2026-04-23 12:05 24.98004 110.04821 26528 ft 545 kts 30°
2026-04-23 12:05 25.01140 110.07178 26547 ft 546 kts 30°
2026-04-23 12:05 25.04288 110.09526 26544 ft 546 kts 29°
2026-04-23 12:05 25.07437 110.11859 26541 ft 546 kts 29°
2026-04-23 12:06 25.10597 110.14199 26538 ft 546 kts 29°
2026-04-23 12:06 25.13749 110.16538 26540 ft 547 kts 29°
2026-04-23 12:06 25.20032 110.21222 26544 ft 548 kts 30°
2026-04-23 12:07 25.23181 110.23597 26539 ft 548 kts 30°
2026-04-23 12:07 25.26337 110.25966 26547 ft 547 kts 30°
2026-04-23 12:07 25.29502 110.28309 26545 ft 548 kts 29°
2026-04-23 12:07 25.32671 110.30646 26552 ft 548 kts 29°
2026-04-23 12:08 25.35843 110.32988 26559 ft 548 kts 29°
2026-04-23 12:08 25.39015 110.35336 26557 ft 548 kts 29°
2026-04-23 12:08 25.42184 110.37690 26582 ft 549 kts 29°
2026-04-23 12:08 25.45351 110.40047 26562 ft 549 kts 29°
2026-04-23 12:09 25.48533 110.42395 26567 ft 550 kts 29°
2026-04-23 12:09 25.51721 110.44733 26570 ft 550 kts 29°
2026-04-23 12:09 25.54906 110.47071 26580 ft 550 kts 29°
2026-04-23 12:09 25.58099 110.49409 26582 ft 549 kts 28°
2026-04-23 12:10 25.61320 110.51684 26581 ft 548 kts 27°
2026-04-23 12:10 25.64563 110.53912 26572 ft 548 kts 27°
2026-04-23 12:10 25.67808 110.56125 26597 ft 547 kts 26°
2026-04-23 12:10 25.71050 110.58344 26585 ft 547 kts 27°
2026-04-23 12:11 25.74276 110.60590 26594 ft 547 kts 27°
2026-04-23 12:11 25.77502 110.62827 26589 ft 547 kts 26°
2026-04-23 12:11 25.80753 110.65026 26588 ft 547 kts 26°
2026-04-23 12:11 25.84013 110.67207 26592 ft 548 kts 26°
2026-04-23 12:12 25.87278 110.69390 26592 ft 548 kts 26°
2026-04-23 12:12 25.90548 110.71581 26599 ft 548 kts 26°
2026-04-23 12:12 25.93800 110.73760 26630 ft 549 kts 26°
2026-04-23 12:12 25.97062 110.75972 26600 ft 547 kts 26°
2026-04-23 12:13 26.00301 110.78168 26593 ft 545 kts 26°
2026-04-23 12:13 26.03523 110.80358 26610 ft 544 kts 26°
2026-04-23 12:13 26.06759 110.82552 26602 ft 545 kts 26°
2026-04-23 12:13 26.10006 110.84744 26604 ft 546 kts 26°
2026-04-23 12:14 26.13254 110.86932 26602 ft 546 kts 26°
2026-04-23 12:14 26.16502 110.89127 26599 ft 547 kts 26°
2026-04-23 12:14 26.19752 110.91343 26649 ft 547 kts 26°
2026-04-23 12:14 26.22987 110.93558 26602 ft 544 kts 26°
2026-04-23 12:15 26.26220 110.95755 26596 ft 544 kts 25°
2026-04-23 12:15 26.29447 110.97935 26613 ft 543 kts 26°
2026-04-23 12:15 26.32675 111.00125 26615 ft 543 kts 26°
2026-04-23 12:15 26.35902 111.02318 26604 ft 544 kts 26°
2026-04-23 12:16 26.39083 111.04499 26613 ft 544 kts 26°
2026-04-23 12:16 26.42307 111.06709 26611 ft 544 kts 26°
2026-04-23 12:16 26.45517 111.08917 26609 ft 544 kts 26°
2026-04-23 12:16 26.48757 111.11136 26604 ft 544 kts 26°
2026-04-23 12:17 26.51979 111.13348 26608 ft 543 kts 26°
2026-04-23 12:17 26.55199 111.15543 26606 ft 543 kts 25°
2026-04-23 12:17 26.58422 111.17732 26604 ft 543 kts 25°
2026-04-23 12:17 26.61639 111.19965 26605 ft 545 kts 27°
2026-04-23 12:18 26.64817 111.22264 26606 ft 545 kts 28°
2026-04-23 12:18 26.67992 111.24606 26607 ft 546 kts 28°
2026-04-23 12:18 26.71155 111.26961 26600 ft 546 kts 28°
2026-04-23 12:18 26.74319 111.29323 26603 ft 547 kts 28°
2026-04-23 12:19 26.77483 111.31676 26589 ft 546 kts 28°
2026-04-23 12:19 26.80641 111.34039 26600 ft 546 kts 28°
2026-04-23 12:19 26.83806 111.36374 26606 ft 545 kts 28°
2026-04-23 12:19 26.86983 111.38698 26607 ft 545 kts 27°
2026-04-23 12:20 26.90164 111.41017 26604 ft 545 kts 27°
2026-04-23 12:20 26.93344 111.43330 26604 ft 545 kts 27°
2026-04-23 12:20 26.96574 111.45538 26607 ft 543 kts 25°
2026-04-23 12:20 26.99838 111.47661 26611 ft 540 kts 24°
2026-04-23 12:21 27.03101 111.49746 26606 ft 539 kts 24°
2026-04-23 12:21 27.06359 111.51832 26608 ft 539 kts 24°
2026-04-23 12:21 27.09604 111.53929 26607 ft 539 kts 24°
2026-04-23 12:21 27.12845 111.56047 26615 ft 539 kts 24°
2026-04-23 12:22 27.16088 111.58178 26589 ft 540 kts 25°
2026-04-23 12:22 27.19314 111.60335 26619 ft 540 kts 25°
2026-04-23 12:22 27.22524 111.62532 26649 ft 541 kts 26°
2026-04-23 12:22 27.25721 111.64746 26614 ft 539 kts 26°
2026-04-23 12:23 27.28905 111.66959 26613 ft 538 kts 26°
2026-04-23 12:23 27.32086 111.69171 26613 ft 537 kts 26°
2026-04-23 12:23 27.35263 111.71378 26613 ft 537 kts 26°
2026-04-23 12:23 27.38443 111.73585 26612 ft 537 kts 26°
2026-04-23 12:24 27.41627 111.75793 26615 ft 537 kts 26°
2026-04-23 12:24 27.44804 111.77990 26618 ft 536 kts 26°
2026-04-23 12:24 27.48001 111.80156 26630 ft 535 kts 24°
2026-04-23 12:24 27.51332 111.81935 26563 ft 526 kts 17°
2026-04-23 12:25 27.54694 111.83495 26336 ft 520 kts 15°
2026-04-23 12:25 27.58046 111.84967 26089 ft 517 kts 14°
2026-04-23 12:25 27.61417 111.86385 25853 ft 514 kts 14°
2026-04-23 12:25 27.64752 111.87761 25618 ft 511 kts 14°
2026-04-23 12:26 27.67994 111.89093 25383 ft 509 kts 14°
2026-04-23 12:26 27.71263 111.90443 25164 ft 506 kts 14°
2026-04-23 12:26 27.74568 111.91815 24959 ft 503 kts 15°
2026-04-23 12:26 27.77860 111.93218 24727 ft 498 kts 17°
2026-04-23 12:27 27.80912 111.95100 24504 ft 504 kts 31°
2026-04-23 12:27 27.83458 111.97748 24284 ft 509 kts 47°
2026-04-23 12:27 27.85612 112.00932 24060 ft 510 kts 52°
2026-04-23 12:27 27.87599 112.04268 23834 ft 510 kts 55°
2026-04-23 12:28 27.89489 112.07634 23553 ft 507 kts 56°
2026-04-23 12:28 27.91340 112.10987 22867 ft 497 kts 56°
2026-04-23 12:28 27.93160 112.14272 22137 ft 488 kts 56°
2026-04-23 12:28 27.94956 112.17482 21414 ft 481 kts 56°
2026-04-23 12:29 27.96737 112.20659 20702 ft 475 kts 56°
2026-04-23 12:29 27.98145 112.24019 20013 ft 473 kts 70°
2026-04-23 12:29 27.98744 112.27636 19324 ft 469 kts 88°
2026-04-23 12:29 27.98677 112.31332 18608 ft 464 kts 93°
2026-04-23 12:30 27.98490 112.34940 17874 ft 457 kts 94°
2026-04-23 12:30 27.98292 112.38493 17172 ft 450 kts 94°
2026-04-23 12:30 27.98084 112.42000 16502 ft 443 kts 94°
2026-04-23 12:30 27.97871 112.45466 15819 ft 437 kts 94°
2026-04-23 12:31 27.97661 112.48870 15143 ft 431 kts 94°
2026-04-23 12:31 27.97452 112.52236 14463 ft 426 kts 93°
2026-04-23 12:31 27.97246 112.55550 13918 ft 418 kts 93°
2026-04-23 12:31 27.97042 112.58795 13261 ft 411 kts 93°
2026-04-23 12:32 27.96841 112.62007 12560 ft 405 kts 93°
2026-04-23 12:32 27.96645 112.65154 11858 ft 399 kts 93°
2026-04-23 12:32 27.96452 112.68237 11543 ft 382 kts 93°
2026-04-23 12:32 27.96262 112.71140 11437 ft 359 kts 93°
2026-04-23 12:33 27.96080 112.73868 11340 ft 338 kts 93°
2026-04-23 12:33 27.95911 112.76447 11217 ft 320 kts 93°
2026-04-23 12:33 27.95756 112.78892 11082 ft 305 kts 93°
2026-04-23 12:33 27.95610 112.81243 10937 ft 295 kts 93°
2026-04-23 12:34 27.95470 112.83516 10810 ft 286 kts 92°
2026-04-23 12:34 27.95330 112.85759 10509 ft 285 kts 92°
2026-04-23 12:34 27.95190 112.87990 10171 ft 284 kts 92°
2026-04-23 12:34 27.95168 112.90206 9852 ft 282 kts 82°
2026-04-23 12:35 27.95741 112.92364 9685 ft 291 kts 63°
2026-04-23 12:35 27.96670 112.94398 9605 ft 291 kts 60°
2026-04-23 12:35 27.97642 112.96404 9324 ft 289 kts 60°
2026-04-23 12:35 27.98591 112.98362 9022 ft 287 kts 60°
2026-04-23 12:36 27.99546 113.00341 8791 ft 286 kts 60°
2026-04-23 12:36 28.00492 113.02310 8595 ft 285 kts 60°
2026-04-23 12:36 28.01435 113.04277 8396 ft 283 kts 60°
2026-04-23 12:36 28.02372 113.06232 8189 ft 282 kts 60°
2026-04-23 12:37 28.03304 113.08183 7986 ft 281 kts 60°
2026-04-23 12:37 28.04229 113.10126 7783 ft 280 kts 60°
2026-04-23 12:37 28.05153 113.12065 7592 ft 279 kts 61°
2026-04-23 12:37 28.06068 113.13986 7389 ft 278 kts 61°
2026-04-23 12:38 28.06989 113.15921 7192 ft 277 kts 61°
2026-04-23 12:38 28.07899 113.17838 6990 ft 276 kts 61°
2026-04-23 12:38 28.08806 113.19744 6791 ft 274 kts 61°
2026-04-23 12:38 28.09700 113.21642 6609 ft 273 kts 62°
2026-04-23 12:39 28.10344 113.23660 6396 ft 273 kts 79°
2026-04-23 12:39 28.10539 113.25790 5907 ft 272 kts 86°
2026-04-23 12:39 28.10623 113.27933 5378 ft 272 kts 87°
2026-04-23 12:39 28.10700 113.30066 4907 ft 270 kts 88°
2026-04-23 12:40 28.10583 113.32177 4431 ft 269 kts 103°
2026-04-23 12:40 28.09753 113.34045 4030 ft 268 kts 131°
2026-04-23 12:40 28.08225 113.35241 3902 ft 270 kts 160°
2026-04-23 12:40 28.06393 113.35612 3893 ft 271 kts 178°
2026-04-23 12:41 28.04546 113.35698 3896 ft 254 kts 179°
2026-04-23 12:41 28.02851 113.35773 3908 ft 234 kts 179°
2026-04-23 12:41 28.01262 113.35859 3920 ft 226 kts 179°
2026-04-23 12:41 27.99701 113.35948 3912 ft 225 kts 179°
2026-04-23 12:42 27.98132 113.36036 3900 ft 226 kts 179°
2026-04-23 12:42 27.96585 113.35892 3790 ft 219 kts 198°
2026-04-23 12:42 27.95346 113.34964 3284 ft 217 kts 234°
2026-04-23 12:42 27.94798 113.33408 2777 ft 215 kts 265°
2026-04-23 12:43 27.94704 113.31727 2399 ft 215 kts 272°
2026-04-23 12:43 27.94670 113.30028 2306 ft 217 kts 271°
2026-04-23 12:43 27.94623 113.28331 2288 ft 216 kts 271°
2026-04-23 12:43 27.94605 113.26634 2303 ft 214 kts 276°
2026-04-23 12:44 27.95110 113.25098 2300 ft 210 kts 314°
2026-04-23 12:44 27.96255 113.24201 2301 ft 190 kts 336°
2026-04-23 12:44 27.97426 113.23737 2318 ft 169 kts 352°
2026-04-23 12:44 27.98178 113.23633 2312 ft 162 kts 358°
2026-04-23 12:45 27.99670 113.23533 2301 ft 161 kts
2026-04-23 12:45 28.00411 113.23500 2299 ft 161 kts
2026-04-23 12:45 28.01535 113.23446 2294 ft 162 kts 360°
2026-04-23 12:45 28.02660 113.23377 2291 ft 162 kts 359°
2026-04-23 12:46 28.03784 113.23301 2298 ft 162 kts 359°
2026-04-23 12:46 28.04865 113.23226 2288 ft 147 kts 359°
2026-04-23 12:46 28.05829 113.23159 2290 ft 132 kts 359°
2026-04-23 12:46 28.06726 113.23099 2295 ft 128 kts 360°
2026-04-23 12:47 28.07617 113.23041 2139 ft 128 kts 360°
2026-04-23 12:47 28.08508 113.22985 1965 ft 128 kts
2026-04-23 12:47 28.09393 113.22934 1791 ft 128 kts
2026-04-23 12:47 28.10281 113.22883 1622 ft 128 kts
2026-04-23 12:48 28.11170 113.22830 1437 ft 128 kts
2026-04-23 12:48 28.12059 113.22777 1268 ft 127 kts 360°
2026-04-23 12:48 28.12944 113.22723 1089 ft 127 kts 360°
2026-04-23 12:48 28.13828 113.22671 928 ft 127 kts 359°
2026-04-23 12:49 28.14710 113.22617 761 ft 127 kts 359°
2026-04-23 12:49 28.15593 113.22564 594 ft 127 kts 359°
2026-04-23 12:49 28.16476 113.22512 422 ft 127 kts 359°
2026-04-23 12:49 28.17360 113.22464 270 ft 127 kts 359°
2026-04-23 12:50 28.18226 113.22421 213 ft 113 kts 355°
2026-04-23 12:50 28.18820 113.22375 220 ft 74 kts 356°
2026-04-23 12:50 28.19191 113.22301 218 ft 41 kts 330°
2026-04-23 12:50 28.19435 113.22148 218 ft 40 kts 342°
2026-04-23 12:51 28.19616 113.22125 219 ft 26 kts 357°
2026-04-23 12:51 28.19811 113.22113 220 ft 30 kts 357°
2026-04-23 12:51 28.20008 113.22101 217 ft 30 kts 357°
2026-04-23 12:51 28.20220 113.22090 222 ft 27 kts 357°
2026-04-23 12:52 28.20413 113.22079 218 ft 27 kts 357°
2026-04-23 12:52 28.20573 113.22067 223 ft 11 kts 348°
2026-04-23 12:52 28.20618 113.22001 217 ft 0 kts 268°
2026-04-23 12:53 28.20618 113.21978 211 ft 10 kts 268°
2026-04-23 12:53 28.20614 113.21841 202 ft 22 kts 268°
2026-04-23 12:53 28.20612 113.21792 212 ft 4 kts 268°
2026-04-23 12:54 28.20605 113.21736 206 ft 10 kts 250°
2026-04-23 12:54 28.20541 113.21688 212 ft 13 kts 186°
2026-04-23 12:54 28.20433 113.21692 208 ft 18 kts 177°
2026-04-23 12:54 28.20300 113.21699 209 ft 14 kts 177°
2026-04-23 12:55 28.20183 113.21706 210 ft 19 kts 177°
2026-04-23 12:55 28.20043 113.21714 212 ft 18 kts 177°
2026-04-23 12:55 28.19900 113.21723 213 ft 21 kts 177°
2026-04-23 12:55 28.19749 113.21733 214 ft 22 kts 176°
2026-04-23 12:56 28.19601 113.21743 215 ft 18 kts 176°
2026-04-23 12:56 28.19462 113.21753 214 ft 22 kts 177°
2026-04-23 12:56 28.19313 113.21762 215 ft 10 kts 176°
2026-04-23 12:56 28.19263 113.21766 215 ft 10 kts 176°
2026-04-23 12:57 28.19176 113.21771 216 ft 15 kts 177°
2026-04-23 12:57 28.19053 113.21778 218 ft 20 kts 176°
2026-04-23 12:57 28.18915 113.21787 226 ft 20 kts 177°
2026-04-23 12:57 28.18784 113.21795 224 ft 3 kts 177°
2026-04-23 12:58 28.18771 113.21796 225 ft 5 kts 176°
2026-04-23 12:58 28.18712 113.21799 220 ft 11 kts 178°
2026-04-23 12:58 28.18657 113.21738 222 ft 14 kts 252°
2026-04-23 12:58 28.18642 113.21656 224 ft 9 kts 278°
2026-04-23 12:59 28.18671 113.21603 222 ft 0 kts 310°
2026-04-23 12:59 28.18672 113.21602 222 ft 0 kts 310°